Weather History for KFMN - March, 2013

Change the Weather History Date:

Sunday, March 3, 2013

  Actual Average Record
Temperature  
Mean Temperature 42 °F -  
Max Temperature 57 °F 50 °F 68 °F (2006)
Min Temperature 28 °F 24 °F 7 °F (2002)
Degree Days  
Heating Degree Days 22    
Moisture  
Dew Point 22 °F    
Average Humidity 45    
Maximum Humidity 76    
Minimum Humidity 13    
Precipitation  
Precipitation 0.00 in - - ()
Sea Level Pressure  
Sea Level Pressure 30.00 in    
Wind  
Wind Speed 6 mph (East)    
Max Wind Speed 9 mph    
Max Gust Speed -    
Visibility 10 miles    
Events      
Averages and records for this station are not official NWS values.
T = Trace of Precipitation, MM = Missing Value Source: NWS Daily Summary

Daily Weather History Graph

Daily Weather History Graph

Search for Another Location

Airport or City:

Trip Planner

Search our weather history database for the weather conditions in past years. The results will help you decide how hot, cold, wet, or windy it might be!

Date:

Astronomy

Mar. 03, 2013 Rise Set
Actual Time 6:40 AM MST 6:09 PM MST
Civil Twilight 6:14 AM MST 6:35 PM MST
Nautical Twilight 5:44 AM MST 7:05 PM MST
Astronomical Twilight 5:14 AM MST 7:35 PM MST
Moon No Moon Rise 10:08 AM MST
Length of Visible Light 12h 20m
Length of Day
11h 29m
Waning Gibbous, 63% of the Moon is Illuminated
Mar 3
Waning Gibbous
Mar 4
Last Quarter
Mar 11
New
Mar 19
First Quarter
Mar 27
Full

Hourly Weather History & Observations

Time (MST) Temp. Windchill Dew Point Humidity Pressure Visibility Wind Dir Wind Speed Gust Speed Precip Events Conditions
12:53 AM 36.0 °F 29.6 °F 23.0 °F 59% 30.19 in 10.0 mi East 8.1 mph - N/A   Clear
1:53 AM 33.1 °F 26.1 °F 21.9 °F 64% 30.15 in 10.0 mi East 8.1 mph - N/A   Clear
2:53 AM 32.0 °F 25.6 °F 23.0 °F 69% 30.12 in 10.0 mi East 6.9 mph - N/A   Clear
3:53 AM 30.9 °F 23.5 °F 23.0 °F 72% 30.09 in 10.0 mi East 8.1 mph - N/A   Clear
4:53 AM 30.0 °F 23.2 °F 23.0 °F 75% 30.09 in 10.0 mi East 6.9 mph - N/A   Clear
5:53 AM 28.9 °F 21.9 °F 21.9 °F 75% 30.10 in 10.0 mi ENE 6.9 mph - N/A   Clear
6:53 AM 30.9 °F 23.5 °F 24.1 °F 76% 30.09 in 10.0 mi ESE 8.1 mph - N/A   Clear
7:53 AM 34.0 °F 28.0 °F 25.0 °F 70% 30.10 in 10.0 mi East 6.9 mph - N/A   Clear
8:53 AM 37.0 °F 32.4 °F 26.1 °F 65% 30.10 in 10.0 mi East 5.8 mph - N/A   Clear
9:53 AM 44.1 °F 40.1 °F 27.0 °F 51% 30.06 in 10.0 mi East 6.9 mph - N/A   Clear
10:53 AM 46.9 °F - 25.0 °F 42% 30.07 in 10.0 mi Calm Calm - N/A   Clear
11:53 AM 51.1 °F - 21.9 °F 32% 30.02 in 10.0 mi Calm Calm - N/A   Clear
12:53 PM 53.1 °F - 19.0 °F 26% 29.97 in 10.0 mi West 4.6 mph - N/A   Overcast
1:53 PM 53.1 °F - 19.0 °F 26% 29.96 in 10.0 mi West 5.8 mph - N/A   Overcast
2:53 PM 54.0 °F - 21.0 °F 28% 29.94 in 10.0 mi WNW 9.2 mph - N/A   Overcast
3:53 PM 57.9 °F - 19.9 °F 23% 29.90 in 10.0 mi Calm Calm - N/A   Scattered Clouds
4:53 PM 55.0 °F - 18.0 °F 23% 29.90 in 10.0 mi Calm Calm - N/A   Clear
5:53 PM 52.0 °F - 19.0 °F 27% 29.89 in 10.0 mi Calm Calm - N/A   Partly Cloudy
6:53 PM 48.9 °F - 19.0 °F 31% 29.89 in 10.0 mi ESE 6.9 mph - N/A   Scattered Clouds
7:53 PM 48.0 °F - 19.9 °F 33% 29.87 in 10.0 mi ESE 8.1 mph - N/A   Overcast
8:53 PM 42.1 °F 39.2 °F 19.9 °F 41% 29.87 in 10.0 mi ENE 4.6 mph - N/A   Clear
9:53 PM 41.0 °F - 21.0 °F 45% 29.87 in 10.0 mi Calm Calm - N/A   Mostly Cloudy
10:53 PM 46.0 °F 41.4 °F 25.0 °F 44% 29.83 in 10.0 mi West 9.2 mph - N/A   Overcast
11:53 PM 44.1 °F 40.1 °F 25.0 °F 47% 29.82 in 10.0 mi SW 6.9 mph - N/A   Clear